Погода в Чжоушане

Китай     29°58′03″N   122°14′43″E
темп.,
°C
ветер,
м/с
пор.,
м/с
влажн.,
%
обл.,
%
осадки,
мм/ч
давл.,
гПа
погр.,
м
6 мая, чт
чт623:00+16юв337116 0.0 102057
02:00+15ююв357414 0.0 1018132
05:00+15ююв4777100 0.0 1018209
08:00+18ююв597389 0.0 1019462
11:00+19ююв6107640 0.0 1017529
14:00+19ююв710805 0.0 1015472
17:00+18ююв6108469 0.0 1014307
20:00+18ю4790100 0.5 1015159
7 мая, пт
пт723:00+18ююз2392100 0.1 101451
02:00+17ююз2394100 1.6 101291
05:00+16ю3595100 2.2 1012217
08:00+17юз2392100 2.3 1013141
11:00+20зсз4779100 0.0 1013309
14:00+21зсз4777100 0.0 1012295
17:00+22зсз2278100 0.0 101224
20:00+19ююз2391100 0.0 101336
8 мая, сб
сб823:00+18ю3393100 0.0 101349
02:00+18ююв4795100 0.0 1011115
05:00+18ю5992100 0.0 1011192
08:00+19ю51088100 0.0 1011237
11:00+19ю71187100 0.0 1011277
14:00+20ю698690 0.0 1008233
17:00+20ю579225 0.0 1008150
20:00+18ю469965 0.0 100998
9 мая, вс
вс923:00+18ю459961 0.0 101091
02:00+18ю349891 0.0 100985
05:00+17ю459986 0.1 1009125
08:00+19ю459245 0.1 1010158
11:00+21ю458036 0.1 1010212
14:00+21ююв578343 0.1 1008235
17:00+21ююв579260 0.0 1007197
20:00+20ююв6119772 0.1 1007252
10 мая, пн
пн1023:00+20ю7139771 0.0 1007339
02:00+19ю9179734 0.0 1005377
05:00+20ю7159746 0.0 1005311
08:00+21ю6119337 0.0 1006236
11:00+22ю578638 0.0 1005186
14:00+23ю468541 0.0 1003158
17:00+21ю359058 0.0 1002123
20:00+21зюз61493100 2.4 1004251